Portada
METAR-TAF:

METAR-TAF

Aeroports :

Grayslake, Illinois, Estats Units d'Amèrica

latitud: 42-19-29N, longitud: 088-04-27W, altitud: 240 m

Observació

L'informe es va fer fa 23 minuts, a les 02:15 UTC
Vent calma
Temperatura 25°C
Humitat 89%
Pressió 1016 hPa
Visibilitat: 16.1 km
Cel clar

METAR: KMBO 160215Z AUTO 00000KT 10SM CLR 25/23 A3000 RMK AO2 PWINO

Hora: 21:38 (02:38 UTC)


TAF: manca

Observacions i pronòstics meteorològics de més de 4000 aeroports (METAR i TAF).

Les estacions disponibles són els punts grocs i vermells al mapa.

Posi el ratolí al punt desitjat per veure el nom de l'estació.

Feu clic per veure les observacions i els pronòstics meteorològics.

Per canviar el mapa: feu clic els botons verds amb una creu de color negre per apropar; al botó verd amb un guió per allunyar la imatge; o en les fletxes verdes per a mapes adjacents.


METAR-TAF: